• In Belarus
  • List of Countries
  • For 7 days
  • Water Temperature
  • Satellite Maps
  • Weather Map
  • Weather Widgets
  • user-avatar
    Login

    Hourly Weather Sucre

    Today, 23 November, Thursday

    Time Temperature Precipitation Wind Pressure Humidity
    00:00 +14°C° 0.1 mm 2 mps 540 mmHg 82%
    01:00 +13°C° 0.1 mm 2 mps 540 mmHg 84%
    02:00 +13°C° 0.1 mm 2 mps 539 mmHg 86%
    03:00 +13°C° 0.1 mm 2 mps 539 mmHg 86%
    04:00 +13°C° 0.1 mm 2 mps 539 mmHg 86%
    05:00 +13°C° 0.1 mm 2 mps 539 mmHg 86%
    06:00 +13°C° 0 mm 2 mps 540 mmHg 83%
    07:00 +13°C° 0 mm 2 mps 540 mmHg 81%
    08:00 +14°C° 0 mm 2 mps 540 mmHg 78%
    09:00 +15°C° 0 mm 2 mps 541 mmHg 71%
    10:00 +17°C° 0 mm 2 mps 542 mmHg 63%
    11:00 +18°C° 0 mm 2 mps 542 mmHg 56%
    12:00 +19°C° 0 mm 3 mps 542 mmHg 53%
    13:00 +20°C° 0 mm 3 mps 542 mmHg 51%
    14:00 +21°C° 0 mm 4 mps 541 mmHg 48%
    15:00 +20°C° 0.2 mm 4 mps 541 mmHg 51%
    16:00 +20°C° 0.2 mm 4 mps 540 mmHg 54%
    17:00 +19°C° 0.2 mm 4 mps 540 mmHg 56%
    18:00 +18°C° 0.1 mm 4 mps 540 mmHg 60%
    19:00 +17°C° 0.1 mm 3 mps 540 mmHg 64%
    20:00 +16°C° 0.1 mm 3 mps 540 mmHg 68%
    21:00 +16°C° 0 mm 2 mps 540 mmHg 70%
    22:00 +16°C° 0 mm 2 mps 541 mmHg 71%
    23:00 +15°C° 0 mm 2 mps 541 mmHg 73%

    Tomorrow, 24 November, Friday

    Time Temperature Precipitation Wind Pressure Humidity
    00:00 +15°C° 0 mm 2 mps 541 mmHg 75%
    01:00 +14°C° 0 mm 1 mps 540 mmHg 78%
    02:00 +14°C° 0 mm 1 mps 539 mmHg 81%
    03:00 +13°C° 0 mm 1 mps 539 mmHg 83%
    04:00 +13°C° 0 mm 1 mps 539 mmHg 84%
    05:00 +12°C° 0 mm 0 mps 539 mmHg 86%
    06:00 +13°C° 0 mm 0 mps 540 mmHg 80%
    07:00 +14°C° 0 mm 0 mps 541 mmHg 74%
    08:00 +15°C° 0 mm 0 mps 541 mmHg 67%
    09:00 +19°C° 0 mm 1 mps 542 mmHg 59%
    10:00 +20°C° 0 mm 2 mps 543 mmHg 50%
    11:00 +22°C° 0 mm 3 mps 544 mmHg 42%
    12:00 +22°C° 0 mm 3 mps 544 mmHg 39%
    13:00 +23°C° 0 mm 4 mps 543 mmHg 37%
    14:00 +25°C° 0 mm 5 mps 543 mmHg 34%
    15:00 +23°C° 0.1 mm 5 mps 542 mmHg 36%
    16:00 +23°C° 0.1 mm 6 mps 542 mmHg 39%
    17:00 +22°C° 0.1 mm 7 mps 541 mmHg 41%
    18:00 +21°C° 0.2 mm 6 mps 541 mmHg 49%
    19:00 +19°C° 0.2 mm 5 mps 541 mmHg 57%
    20:00 +18°C° 0.2 mm 4 mps 541 mmHg 65%
    21:00 +17°C° 0.2 mm 3 mps 541 mmHg 68%
    22:00 +17°C° 0.2 mm 2 mps 541 mmHg 71%
    23:00 +16°C° 0.2 mm 2 mps 542 mmHg 75%

    Day after tomorrow, 25 November, Saturday

    Time Temperature Precipitation Wind Pressure Humidity
    00:00 +16°C° 0 mm 2 mps 541 mmHg 77%
    01:00 +16°C° 0 mm 1 mps 540 mmHg 79%
    02:00 +15°C° 0 mm 1 mps 540 mmHg 82%
    03:00 +15°C° 0 mm 1 mps 540 mmHg 83%
    04:00 +15°C° 0 mm 1 mps 539 mmHg 84%
    05:00 +15°C° 0 mm 1 mps 539 mmHg 85%
    06:00 +16°C° 0 mm 1 mps 540 mmHg 80%
    07:00 +16°C° 0 mm 1 mps 541 mmHg 74%
    08:00 +18°C° 0 mm 1 mps 541 mmHg 69%
    09:00 +19°C° 0 mm 2 mps 542 mmHg 61%
    10:00 +21°C° 0 mm 2 mps 543 mmHg 53%
    11:00 +22°C° 0 mm 3 mps 544 mmHg 46%
    12:00 +24°C° 0.3 mm 3 mps 543 mmHg 45%
    13:00 +23°C° 0.3 mm 4 mps 543 mmHg 44%
    14:00 +23°C° 0.3 mm 5 mps 542 mmHg 44%
    15:00 +22°C° 1.2 mm 5 mps 541 mmHg 49%
    16:00 +21°C° 1.2 mm 6 mps 541 mmHg 55%
    17:00 +20°C° 1.2 mm 6 mps 540 mmHg 61%
    18:00 +17°C° 3.2 mm 5 mps 540 mmHg 67%
    19:00 +17°C° 3.2 mm 4 mps 540 mmHg 73%
    20:00 +16°C° 3.2 mm 2 mps 540 mmHg 79%
    21:00 +16°C° 0.6 mm 2 mps 541 mmHg 79%
    22:00 +16°C° 0.6 mm 2 mps 541 mmHg 80%
    23:00 +15°C° 0.6 mm 1 mps 541 mmHg 81%

    26 November, Sunday

    Time Temperature Precipitation Wind Pressure Humidity
    00:00 +15°C° 0.2 mm 1 mps 541 mmHg 81%
    01:00 +15°C° 0.2 mm 1 mps 540 mmHg 82%
    02:00 +15°C° 0.2 mm 1 mps 540 mmHg 82%
    03:00 +15°C° 0.1 mm 1 mps 540 mmHg 83%
    04:00 +14°C° 0.1 mm 1 mps 540 mmHg 84%
    05:00 +14°C° 0.1 mm 1 mps 540 mmHg 85%
    06:00 +15°C° 0.1 mm 2 mps 540 mmHg 83%
    07:00 +15°C° 0.1 mm 2 mps 541 mmHg 81%
    08:00 +15°C° 0.1 mm 2 mps 541 mmHg 79%
    09:00 +16°C° 0.1 mm 2 mps 541 mmHg 74%
    10:00 +17°C° 0.1 mm 3 mps 541 mmHg 69%
    11:00 +18°C° 0.1 mm 3 mps 541 mmHg 64%
    12:00 +19°C° 0.1 mm 3 mps 541 mmHg 61%
    13:00 +20°C° 0.1 mm 3 mps 541 mmHg 58%
    14:00 +21°C° 0.1 mm 4 mps 540 mmHg 54%
    15:00 +20°C° 1 mm 4 mps 539 mmHg 59%
    16:00 +19°C° 1 mm 4 mps 538 mmHg 63%
    17:00 +18°C° 1 mm 4 mps 538 mmHg 67%
    18:00 +18°C° 0.9 mm 3 mps 538 mmHg 71%
    19:00 +17°C° 0.9 mm 3 mps 538 mmHg 75%
    20:00 +16°C° 0.9 mm 2 mps 538 mmHg 80%
    21:00 +16°C° 0.1 mm 2 mps 539 mmHg 81%
    22:00 +16°C° 0.1 mm 2 mps 539 mmHg 83%
    23:00 +15°C° 0.1 mm 1 mps 539 mmHg 85%

    27 November, Monday

    Time Temperature Precipitation Wind Pressure Humidity
    00:00 +15°C° 0 mm 1 mps 538 mmHg 85%
    01:00 +15°C° 0 mm 1 mps 538 mmHg 85%
    02:00 +15°C° 0 mm 1 mps 537 mmHg 85%
    03:00 +15°C° 0 mm 1 mps 537 mmHg 85%
    04:00 +15°C° 0 mm 1 mps 537 mmHg 86%
    05:00 +14°C° 0 mm 1 mps 537 mmHg 86%
    06:00 +15°C° 0 mm 1 mps 538 mmHg 79%
    07:00 +16°C° 0 mm 1 mps 539 mmHg 73%
    08:00 +18°C° 0 mm 1 mps 540 mmHg 66%
    09:00 +20°C° 0.1 mm 1 mps 541 mmHg 59%
    10:00 +21°C° 0.1 mm 2 mps 541 mmHg 51%
    11:00 +22°C° 0.1 mm 3 mps 542 mmHg 44%
    12:00 +24°C° 0.1 mm 3 mps 542 mmHg 43%
    13:00 +23°C° 0.1 mm 4 mps 542 mmHg 41%
    14:00 +25°C° 0.1 mm 5 mps 541 mmHg 40%
    15:00 +23°C° 0.4 mm 6 mps 541 mmHg 43%
    16:00 +23°C° 0.4 mm 7 mps 541 mmHg 46%
    17:00 +22°C° 0.4 mm 9 mps 541 mmHg 49%
    18:00 +20°C° 2 mm 7 mps 541 mmHg 57%
    19:00 +17°C° 2 mm 5 mps 541 mmHg 65%
    20:00 +17°C° 2 mm 3 mps 541 mmHg 73%
    21:00 +16°C° 1.7 mm 3 mps 541 mmHg 74%
    22:00 +16°C° 1.7 mm 2 mps 542 mmHg 74%
    23:00 +16°C° 1.7 mm 2 mps 542 mmHg 75%

    28 November, Tuesday

    Time Temperature Precipitation Wind Pressure Humidity
    00:00 +15°C° 0.4 mm 1 mps 541 mmHg 76%
    01:00 +15°C° 0.4 mm 1 mps 541 mmHg 77%
    02:00 +15°C° 0.4 mm 1 mps 541 mmHg 78%
    03:00 +15°C° 0.4 mm 1 mps 541 mmHg 79%
    04:00 +15°C° 0.4 mm 2 mps 541 mmHg 80%
    05:00 +14°C° 0.4 mm 2 mps 541 mmHg 81%
    06:00 +14°C° 0.9 mm 2 mps 542 mmHg 80%
    07:00 +14°C° 0.9 mm 2 mps 542 mmHg 80%
    08:00 +14°C° 0.9 mm 2 mps 543 mmHg 79%
    09:00 +13°C° 1 mm 3 mps 543 mmHg 79%
    10:00 +13°C° 1 mm 3 mps 543 mmHg 79%
    11:00 +13°C° 1 mm 3 mps 543 mmHg 79%
    12:00 +14°C° 0.6 mm 3 mps 543 mmHg 75%
    13:00 +14°C° 0.6 mm 3 mps 542 mmHg 72%
    14:00 +14°C° 0.6 mm 3 mps 542 mmHg 68%
    15:00 +14°C° 0.4 mm 3 mps 542 mmHg 69%
    16:00 +14°C° 0.4 mm 3 mps 541 mmHg 69%
    17:00 +15°C° 0.4 mm 2 mps 541 mmHg 70%
    18:00 +15°C° 0.1 mm 2 mps 541 mmHg 72%
    19:00 +14°C° 0.1 mm 2 mps 541 mmHg 74%
    20:00 +14°C° 0.1 mm 1 mps 542 mmHg 76%
    21:00 +13°C° 0 mm 1 mps 542 mmHg 78%
    22:00 +13°C° 0 mm 1 mps 542 mmHg 80%
    23:00 +13°C° 0 mm 1 mps 542 mmHg 82%
    Show more